Year,Month,Day,Hour,Minute,Value (Times are PST for temperature in C)
2017,06,25,00,00,16.30
2017,06,25,00,01,16.30
2017,06,25,00,02,16.30
2017,06,25,00,03,16.20
2017,06,25,00,04,16.20
2017,06,25,00,05,16.20
2017,06,25,00,06,16.20
2017,06,25,00,07,16.20
2017,06,25,00,08,16.10
2017,06,25,00,09,16.10
2017,06,25,00,10,16.10
2017,06,25,00,11,16.10
2017,06,25,00,12,16.10
2017,06,25,00,13,16.00
2017,06,25,00,14,16.00
2017,06,25,00,15,16.00
2017,06,25,00,16,16.00
2017,06,25,00,17,15.90
2017,06,25,00,18,15.90
2017,06,25,00,19,15.90
2017,06,25,00,20,15.90
2017,06,25,00,21,15.90
2017,06,25,00,22,15.80
2017,06,25,00,23,15.80
2017,06,25,00,24,15.80
2017,06,25,00,25,15.80
2017,06,25,00,26,15.80
2017,06,25,00,27,15.80
2017,06,25,00,28,15.70
2017,06,25,00,29,15.70
2017,06,25,00,30,15.70
2017,06,25,00,31,15.70
2017,06,25,00,32,15.70
2017,06,25,00,33,15.60
2017,06,25,00,34,15.60
2017,06,25,00,35,15.50
2017,06,25,00,36,15.50
2017,06,25,00,37,15.40
2017,06,25,00,38,15.40
2017,06,25,00,39,15.40
2017,06,25,00,40,15.40
2017,06,25,00,41,15.30
2017,06,25,00,42,15.30
2017,06,25,00,43,15.30
2017,06,25,00,44,15.30
2017,06,25,00,45,15.30
2017,06,25,00,46,15.30
2017,06,25,00,47,15.30
2017,06,25,00,48,15.30
2017,06,25,00,49,15.30
2017,06,25,00,50,15.20
2017,06,25,00,51,15.20
2017,06,25,00,52,15.20
2017,06,25,00,53,15.20
2017,06,25,00,54,15.20
2017,06,25,00,55,15.10
2017,06,25,00,56,15.10
2017,06,25,00,57,15.10
2017,06,25,00,58,15.10
2017,06,25,00,59,15.10
2017,06,25,01,00,15.10
2017,06,25,01,01,15.10
2017,06,25,01,02,15.10
2017,06,25,01,03,15.10
2017,06,25,01,04,15.10
2017,06,25,01,05,15.10
2017,06,25,01,06,15.10
2017,06,25,01,07,15.10
2017,06,25,01,08,15.10
2017,06,25,01,09,15.10
2017,06,25,01,10,15.10
2017,06,25,01,11,15.10
2017,06,25,01,12,15.10
2017,06,25,01,13,15.10
2017,06,25,01,14,15.00
2017,06,25,01,15,15.00
2017,06,25,01,16,15.00
2017,06,25,01,17,14.90
2017,06,25,01,18,14.90
2017,06,25,01,19,14.90
2017,06,25,01,20,14.80
2017,06,25,01,21,14.80
2017,06,25,01,22,14.80
2017,06,25,01,23,14.70
2017,06,25,01,24,14.70
2017,06,25,01,25,14.70
2017,06,25,01,26,14.70
2017,06,25,01,27,14.70
2017,06,25,01,28,14.60
2017,06,25,01,29,14.60
2017,06,25,01,30,14.60
2017,06,25,01,31,14.60
2017,06,25,01,32,14.60
2017,06,25,01,33,14.60
2017,06,25,01,34,14.60
2017,06,25,01,35,14.50
2017,06,25,01,36,14.50
2017,06,25,01,37,14.40
2017,06,25,01,38,14.40
2017,06,25,01,39,14.40
2017,06,25,01,40,14.40
2017,06,25,01,41,14.40
2017,06,25,01,42,14.30
2017,06,25,01,43,14.30
2017,06,25,01,44,14.30
2017,06,25,01,45,14.30
2017,06,25,01,46,14.30
2017,06,25,01,47,14.20
2017,06,25,01,48,14.20
2017,06,25,01,49,14.20
2017,06,25,01,50,14.20
2017,06,25,01,51,14.20
2017,06,25,01,52,14.30
2017,06,25,01,53,14.30
2017,06,25,01,54,14.30
2017,06,25,01,55,14.30
2017,06,25,01,56,14.30
2017,06,25,01,57,14.30
2017,06,25,01,58,14.30
2017,06,25,01,59,14.30
2017,06,25,02,00,14.30
2017,06,25,02,01,14.30
2017,06,25,02,02,14.30
2017,06,25,02,03,14.30
2017,06,25,02,04,14.30
2017,06,25,02,05,14.30
2017,06,25,02,06,14.30
2017,06,25,02,07,14.30
2017,06,25,02,08,14.30
2017,06,25,02,09,14.20
2017,06,25,02,10,14.20
2017,06,25,02,11,14.20
2017,06,25,02,12,14.20
2017,06,25,02,13,14.20
2017,06,25,02,14,14.20
2017,06,25,02,15,14.20
2017,06,25,02,16,14.10
2017,06,25,02,17,14.10
2017,06,25,02,18,14.10
2017,06,25,02,19,14.00
2017,06,25,02,20,14.00
2017,06,25,02,21,13.90
2017,06,25,02,22,13.90
2017,06,25,02,23,13.90
2017,06,25,02,24,13.80
2017,06,25,02,25,13.80
2017,06,25,02,26,13.80
2017,06,25,02,27,13.80
2017,06,25,02,28,13.80
2017,06,25,02,29,13.80
2017,06,25,02,30,13.80
2017,06,25,02,31,13.80
2017,06,25,02,32,13.80
2017,06,25,02,33,13.80
2017,06,25,02,34,13.80
2017,06,25,02,35,13.80
2017,06,25,02,36,13.80
2017,06,25,02,37,13.80
2017,06,25,02,38,13.80
2017,06,25,02,39,13.80
2017,06,25,02,40,13.80
2017,06,25,02,41,13.80
2017,06,25,02,42,13.80
2017,06,25,02,43,13.80
2017,06,25,02,44,13.80
2017,06,25,02,45,13.80
2017,06,25,02,46,13.70
2017,06,25,02,47,13.70
2017,06,25,02,48,13.70
2017,06,25,02,49,13.70
2017,06,25,02,50,13.70
2017,06,25,02,51,13.70
2017,06,25,02,52,13.70
2017,06,25,02,53,13.70
2017,06,25,02,54,13.70
2017,06,25,02,55,13.70
2017,06,25,02,56,13.70
2017,06,25,02,57,13.60
2017,06,25,02,58,13.60
2017,06,25,02,59,13.60
2017,06,25,03,00,13.60
2017,06,25,03,01,13.60
2017,06,25,03,02,13.60
2017,06,25,03,03,13.50
2017,06,25,03,04,13.50
2017,06,25,03,05,13.50
2017,06,25,03,06,13.50
2017,06,25,03,07,13.40
2017,06,25,03,08,13.40
2017,06,25,03,09,13.40
2017,06,25,03,10,13.40
2017,06,25,03,11,13.40
2017,06,25,03,12,13.40
2017,06,25,03,13,13.40
2017,06,25,03,14,13.40
2017,06,25,03,15,13.40
2017,06,25,03,16,13.40
2017,06,25,03,17,13.40
2017,06,25,03,18,13.50
2017,06,25,03,19,13.50
2017,06,25,03,20,13.50
2017,06,25,03,21,13.50
2017,06,25,03,22,13.40
2017,06,25,03,23,13.40
2017,06,25,03,24,13.40
2017,06,25,03,25,13.40
2017,06,25,03,26,13.40
2017,06,25,03,27,13.40
2017,06,25,03,28,13.40
2017,06,25,03,29,13.40
2017,06,25,03,30,13.40
2017,06,25,03,31,13.40
2017,06,25,03,32,13.40
2017,06,25,03,33,13.40
2017,06,25,03,34,13.40
2017,06,25,03,35,13.40
2017,06,25,03,36,13.40
2017,06,25,03,37,13.40
2017,06,25,03,38,13.40
2017,06,25,03,39,13.40
2017,06,25,03,40,13.40
2017,06,25,03,41,13.40
2017,06,25,03,42,13.40
2017,06,25,03,43,13.40
2017,06,25,03,44,13.30
2017,06,25,03,45,13.30
2017,06,25,03,46,13.30
2017,06,25,03,47,13.30
2017,06,25,03,48,13.30
2017,06,25,03,49,13.20
2017,06,25,03,50,13.20
2017,06,25,03,51,13.20
2017,06,25,03,52,13.20
2017,06,25,03,53,13.20
2017,06,25,03,54,13.20
2017,06,25,03,55,13.20
2017,06,25,03,56,13.20
2017,06,25,03,57,13.20
2017,06,25,03,58,13.20
2017,06,25,03,59,13.10
2017,06,25,04,00,13.10
2017,06,25,04,01,13.10
2017,06,25,04,02,13.00
2017,06,25,04,03,13.00
2017,06,25,04,04,13.00
2017,06,25,04,05,12.90
2017,06,25,04,06,12.90
2017,06,25,04,07,12.90
2017,06,25,04,08,12.90
2017,06,25,04,09,12.90
2017,06,25,04,10,12.90
2017,06,25,04,11,12.90
2017,06,25,04,12,12.90
2017,06,25,04,13,12.90
2017,06,25,04,14,12.90
2017,06,25,04,15,12.90
2017,06,25,04,16,12.90
2017,06,25,04,17,12.90
2017,06,25,04,18,12.90
2017,06,25,04,19,12.90
2017,06,25,04,20,12.90
2017,06,25,04,21,12.90
2017,06,25,04,22,12.90
2017,06,25,04,23,12.90
2017,06,25,04,24,12.90
2017,06,25,04,25,12.90
2017,06,25,04,26,12.90
2017,06,25,04,27,12.90
2017,06,25,04,28,12.90
2017,06,25,04,29,12.90
2017,06,25,04,30,12.90
2017,06,25,04,31,12.80
2017,06,25,04,32,12.80
2017,06,25,04,33,12.80
2017,06,25,04,34,12.80
2017,06,25,04,35,12.80
2017,06,25,04,36,12.80
2017,06,25,04,37,12.70
2017,06,25,04,38,12.70
2017,06,25,04,39,12.70
2017,06,25,04,40,12.70
2017,06,25,04,41,12.70
2017,06,25,04,42,12.70
2017,06,25,04,43,12.70
2017,06,25,04,44,12.70
2017,06,25,04,45,12.70
2017,06,25,04,46,12.70
2017,06,25,04,47,12.70
2017,06,25,04,48,12.70
2017,06,25,04,49,12.70
2017,06,25,04,50,12.70
2017,06,25,04,51,12.70
2017,06,25,04,52,12.70
2017,06,25,04,53,12.70
2017,06,25,04,54,12.70
2017,06,25,04,55,12.80
2017,06,25,04,56,12.80
2017,06,25,04,57,12.80
2017,06,25,04,58,12.80
2017,06,25,04,59,12.80
2017,06,25,05,00,12.80
2017,06,25,05,01,12.80
2017,06,25,05,02,12.80
2017,06,25,05,03,12.80
2017,06,25,05,04,12.80
2017,06,25,05,05,12.80
2017,06,25,05,06,12.70
2017,06,25,05,07,12.70
2017,06,25,05,08,12.70
2017,06,25,05,09,12.70
2017,06,25,05,10,12.70
2017,06,25,05,11,12.70
2017,06,25,05,12,12.70
2017,06,25,05,13,12.70
2017,06,25,05,14,12.70
2017,06,25,05,15,12.70
2017,06,25,05,16,12.70
2017,06,25,05,17,12.70
2017,06,25,05,18,12.70
2017,06,25,05,19,12.70
2017,06,25,05,20,12.60
2017,06,25,05,21,12.60
2017,06,25,05,22,12.60
2017,06,25,05,23,12.60
2017,06,25,05,24,12.60
2017,06,25,05,25,12.60
2017,06,25,05,26,12.50
2017,06,25,05,27,12.50
2017,06,25,05,28,12.50
2017,06,25,05,29,12.50
2017,06,25,05,30,12.50
2017,06,25,05,31,12.50
2017,06,25,05,32,12.50
2017,06,25,05,33,12.50
2017,06,25,05,34,12.50
2017,06,25,05,35,12.50
2017,06,25,05,36,12.50
2017,06,25,05,37,12.60
2017,06,25,05,38,12.60
2017,06,25,05,39,12.60
2017,06,25,05,40,12.50
2017,06,25,05,41,12.50
2017,06,25,05,42,12.40
2017,06,25,05,43,12.40
2017,06,25,05,44,12.30
2017,06,25,05,45,12.30
2017,06,25,05,46,12.30
2017,06,25,05,47,12.30
2017,06,25,05,48,12.30
2017,06,25,05,49,12.30
2017,06,25,05,50,12.30
2017,06,25,05,51,12.30
2017,06,25,05,52,12.30
2017,06,25,05,53,12.30
2017,06,25,05,54,12.30
2017,06,25,05,55,12.30
2017,06,25,05,56,12.30
2017,06,25,05,57,12.30
2017,06,25,05,58,12.30
2017,06,25,05,59,12.30
2017,06,25,06,00,12.30
2017,06,25,06,01,12.30
2017,06,25,06,02,12.30
2017,06,25,06,03,12.40
2017,06,25,06,04,12.40
2017,06,25,06,05,12.40
2017,06,25,06,06,12.40
2017,06,25,06,07,12.50
2017,06,25,06,08,12.60
2017,06,25,06,09,12.60
2017,06,25,06,10,12.70
2017,06,25,06,11,12.70
2017,06,25,06,12,12.80
2017,06,25,06,13,12.80
2017,06,25,06,14,12.90
2017,06,25,06,15,13.00
2017,06,25,06,16,13.10
2017,06,25,06,17,13.20
2017,06,25,06,18,13.30
2017,06,25,06,19,13.30
2017,06,25,06,20,13.50
2017,06,25,06,21,13.60
2017,06,25,06,22,13.70
2017,06,25,06,23,13.80
2017,06,25,06,24,13.90
2017,06,25,06,25,13.90
2017,06,25,06,26,14.00
2017,06,25,06,27,14.10
2017,06,25,06,28,14.10
2017,06,25,06,29,14.20
2017,06,25,06,30,14.20
2017,06,25,06,31,14.30
2017,06,25,06,32,14.30
2017,06,25,06,33,14.30
2017,06,25,06,34,14.40
2017,06,25,06,35,14.40
2017,06,25,06,36,14.50
2017,06,25,06,37,14.60
2017,06,25,06,38,14.70
2017,06,25,06,39,14.80
2017,06,25,06,40,14.80
2017,06,25,06,41,14.90
2017,06,25,06,42,15.00
2017,06,25,06,43,15.00
2017,06,25,06,44,15.10
2017,06,25,06,45,15.10
2017,06,25,06,46,15.20
2017,06,25,06,47,15.20
2017,06,25,06,48,15.30
2017,06,25,06,49,15.40
2017,06,25,06,50,15.40
2017,06,25,06,51,15.50
2017,06,25,06,52,15.50
2017,06,25,06,53,15.60
2017,06,25,06,54,15.60
2017,06,25,06,55,15.60
2017,06,25,06,56,15.70
2017,06,25,06,57,15.70
2017,06,25,06,58,15.80
2017,06,25,06,59,15.80
2017,06,25,07,00,15.90
2017,06,25,07,01,16.00
2017,06,25,07,02,16.00
2017,06,25,07,03,16.10
2017,06,25,07,04,16.20
2017,06,25,07,05,16.20
2017,06,25,07,06,16.30
2017,06,25,07,07,16.30
2017,06,25,07,08,16.40
2017,06,25,07,09,16.40
2017,06,25,07,10,16.50
2017,06,25,07,11,16.60
2017,06,25,07,12,16.60
2017,06,25,07,13,16.70
2017,06,25,07,14,16.70
2017,06,25,07,15,16.80
2017,06,25,07,16,16.80
2017,06,25,07,17,16.90
2017,06,25,07,18,16.90
2017,06,25,07,19,17.00
2017,06,25,07,20,17.10
2017,06,25,07,21,17.20
2017,06,25,07,22,17.30
2017,06,25,07,23,17.40
2017,06,25,07,24,17.50
2017,06,25,07,25,17.60
2017,06,25,07,26,17.70
2017,06,25,07,27,17.80
2017,06,25,07,28,17.90
2017,06,25,07,29,18.00
2017,06,25,07,30,18.10
2017,06,25,07,31,18.20
2017,06,25,07,32,18.30
2017,06,25,07,33,18.40
2017,06,25,07,34,18.40
2017,06,25,07,35,18.50
2017,06,25,07,36,18.60
2017,06,25,07,37,18.70
2017,06,25,07,38,18.70
2017,06,25,07,39,18.80
2017,06,25,07,40,18.90
2017,06,25,07,41,18.90
2017,06,25,07,42,19.00
2017,06,25,07,43,19.10
2017,06,25,07,44,19.20
2017,06,25,07,45,19.30
2017,06,25,07,46,19.50
2017,06,25,07,47,19.60
2017,06,25,07,48,19.80
2017,06,25,07,49,20.10
2017,06,25,07,50,20.30
2017,06,25,07,51,20.50
2017,06,25,07,52,20.60
2017,06,25,07,53,20.80
2017,06,25,07,54,21.00
2017,06,25,07,55,21.10
2017,06,25,07,56,21.30
2017,06,25,07,57,21.50
2017,06,25,07,58,21.70
2017,06,25,07,59,21.90
2017,06,25,08,00,22.00
2017,06,25,08,01,22.20
2017,06,25,08,02,22.30
2017,06,25,08,03,22.40
2017,06,25,08,04,22.60
2017,06,25,08,05,22.70
2017,06,25,08,06,22.70
2017,06,25,08,07,22.80
2017,06,25,08,08,22.80
2017,06,25,08,09,22.90
2017,06,25,08,10,22.90
2017,06,25,08,11,23.00
2017,06,25,08,12,23.10
2017,06,25,08,13,23.20
2017,06,25,08,14,23.20
2017,06,25,08,15,23.30
2017,06,25,08,16,23.40
2017,06,25,08,17,23.50
2017,06,25,08,18,23.50
2017,06,25,08,19,23.50
2017,06,25,08,20,23.60
2017,06,25,08,21,23.60
2017,06,25,08,22,23.60
2017,06,25,08,23,23.70
2017,06,25,08,24,23.70
2017,06,25,08,25,23.80
2017,06,25,08,26,23.80
2017,06,25,08,27,23.80
2017,06,25,08,28,23.80
2017,06,25,08,29,23.80
2017,06,25,08,30,23.80
2017,06,25,08,31,23.80
2017,06,25,08,32,23.80
2017,06,25,08,33,23.80
2017,06,25,08,34,23.80
2017,06,25,08,35,23.90
2017,06,25,08,36,23.90
2017,06,25,08,37,23.90
2017,06,25,08,38,23.90
2017,06,25,08,39,24.00
2017,06,25,08,40,24.00
2017,06,25,08,41,24.10
2017,06,25,08,42,24.10
2017,06,25,08,43,24.20
2017,06,25,08,44,24.20
2017,06,25,08,45,24.20
2017,06,25,08,46,24.20
2017,06,25,08,47,24.20
2017,06,25,08,48,24.30
2017,06,25,08,49,24.30
2017,06,25,08,50,24.30
2017,06,25,08,51,24.30
2017,06,25,08,52,24.40
2017,06,25,08,53,24.40
2017,06,25,08,54,24.40
2017,06,25,08,55,24.40
2017,06,25,08,56,24.50
2017,06,25,08,57,24.50
2017,06,25,08,58,24.50
2017,06,25,08,59,24.60
2017,06,25,09,00,24.60
2017,06,25,09,01,24.60
2017,06,25,09,02,24.60
2017,06,25,09,03,24.70
2017,06,25,09,04,24.70
2017,06,25,09,05,24.70
2017,06,25,09,06,24.70
2017,06,25,09,07,24.80
2017,06,25,09,08,24.80
2017,06,25,09,09,24.80
2017,06,25,09,10,24.80
2017,06,25,09,11,24.90
2017,06,25,09,12,24.90
2017,06,25,09,13,24.90
2017,06,25,09,14,24.90
2017,06,25,09,15,24.90
2017,06,25,09,16,25.00
2017,06,25,09,17,25.00
2017,06,25,09,18,24.90
2017,06,25,09,19,24.90
2017,06,25,09,20,25.00
2017,06,25,09,21,25.10
2017,06,25,09,22,25.10
2017,06,25,09,23,25.10
2017,06,25,09,24,25.20
2017,06,25,09,25,25.20
2017,06,25,09,26,25.30
2017,06,25,09,27,25.30
2017,06,25,09,28,25.40
2017,06,25,09,29,25.40
2017,06,25,09,30,25.50
2017,06,25,09,31,25.50
2017,06,25,09,32,25.60
2017,06,25,09,33,25.60
2017,06,25,09,34,25.70
2017,06,25,09,35,25.70
2017,06,25,09,36,25.70
2017,06,25,09,37,25.70
2017,06,25,09,38,25.80
2017,06,25,09,39,25.90
2017,06,25,09,40,25.90
2017,06,25,09,41,25.90
2017,06,25,09,42,25.90
2017,06,25,09,43,25.90
2017,06,25,09,44,25.90
2017,06,25,09,45,25.90
2017,06,25,09,46,25.90
2017,06,25,09,47,25.90
2017,06,25,09,48,25.90
2017,06,25,09,49,26.00
2017,06,25,09,50,26.00
2017,06,25,09,51,26.00
2017,06,25,09,52,26.10
2017,06,25,09,53,26.10
2017,06,25,09,54,26.10
2017,06,25,09,55,26.10
2017,06,25,09,56,26.00
2017,06,25,09,57,25.90
2017,06,25,09,58,25.90
2017,06,25,09,59,25.80
2017,06,25,10,00,25.70
2017,06,25,10,01,25.70
2017,06,25,10,02,25.70
2017,06,25,10,03,25.70
2017,06,25,10,04,25.70
2017,06,25,10,05,25.80
2017,06,25,10,06,25.80
2017,06,25,10,07,25.90
2017,06,25,10,08,25.90
2017,06,25,10,09,25.90
2017,06,25,10,10,26.00
2017,06,25,10,11,26.00
2017,06,25,10,12,26.10
2017,06,25,10,13,26.10
2017,06,25,10,14,26.10
2017,06,25,10,15,26.20
2017,06,25,10,16,26.20
2017,06,25,10,17,26.20
2017,06,25,10,18,26.20
2017,06,25,10,19,26.10
2017,06,25,10,20,26.00
2017,06,25,10,21,26.00
2017,06,25,10,22,26.00
2017,06,25,10,23,26.00
2017,06,25,10,24,26.00
2017,06,25,10,25,26.10
2017,06,25,10,26,26.20
2017,06,25,10,27,26.30
2017,06,25,10,28,26.30
2017,06,25,10,29,26.40
2017,06,25,10,30,26.40
2017,06,25,10,31,26.30
2017,06,25,10,32,26.40
2017,06,25,10,33,26.40
2017,06,25,10,34,26.50
2017,06,25,10,35,26.50
2017,06,25,10,36,26.50
2017,06,25,10,37,26.60
2017,06,25,10,38,26.60
2017,06,25,10,39,26.60
2017,06,25,10,40,26.60
2017,06,25,10,41,26.70
2017,06,25,10,42,26.70
2017,06,25,10,43,26.70
2017,06,25,10,44,26.70
2017,06,25,10,45,26.60
2017,06,25,10,46,26.60
2017,06,25,10,47,26.70
2017,06,25,10,48,26.70
2017,06,25,10,49,26.80
2017,06,25,10,50,26.80
2017,06,25,10,51,26.80
2017,06,25,10,52,26.70
2017,06,25,10,53,26.60
2017,06,25,10,54,26.50
2017,06,25,10,55,26.50
2017,06,25,10,56,26.50
2017,06,25,10,57,26.60
2017,06,25,10,58,26.60
2017,06,25,10,59,26.70
2017,06,25,11,00,26.80
2017,06,25,11,01,26.90
2017,06,25,11,02,26.90
2017,06,25,11,03,26.90
2017,06,25,11,04,26.80
2017,06,25,11,05,26.70
2017,06,25,11,06,26.60
2017,06,25,11,07,26.50
2017,06,25,11,08,26.50
2017,06,25,11,09,26.50
2017,06,25,11,10,26.40
2017,06,25,11,11,26.40
2017,06,25,11,12,26.40
2017,06,25,11,13,26.40
2017,06,25,11,14,26.40
2017,06,25,11,15,26.40
2017,06,25,11,16,26.50
2017,06,25,11,17,26.50
2017,06,25,11,18,26.40
2017,06,25,11,19,26.30
2017,06,25,11,20,26.30
2017,06,25,11,21,26.20
2017,06,25,11,22,26.20
2017,06,25,11,23,26.30
2017,06,25,11,24,26.30
2017,06,25,11,25,26.30
2017,06,25,11,26,26.30
2017,06,25,11,27,26.30
2017,06,25,11,28,26.40
2017,06,25,11,29,26.40
2017,06,25,11,30,26.40
2017,06,25,11,31,26.50
2017,06,25,11,32,26.50
2017,06,25,11,33,26.50
2017,06,25,11,34,26.50
2017,06,25,11,35,26.40
2017,06,25,11,36,26.40
2017,06,25,11,37,26.40
2017,06,25,11,38,26.40
2017,06,25,11,39,26.40
2017,06,25,11,40,26.30
2017,06,25,11,41,26.30
2017,06,25,11,42,26.40
2017,06,25,11,43,26.30
2017,06,25,11,44,26.30
2017,06,25,11,45,26.30
2017,06,25,11,46,26.30
2017,06,25,11,47,26.40
2017,06,25,11,48,26.40
2017,06,25,11,49,26.30
2017,06,25,11,50,26.30
2017,06,25,11,51,26.30
2017,06,25,11,52,26.40
2017,06,25,11,53,26.40
2017,06,25,11,54,26.50
2017,06,25,11,55,26.50
2017,06,25,11,56,26.40
2017,06,25,11,57,26.30
2017,06,25,11,58,26.20
2017,06,25,11,59,26.20
2017,06,25,12,00,26.20
2017,06,25,12,01,26.20
2017,06,25,12,02,26.30
2017,06,25,12,03,26.30
2017,06,25,12,04,26.30
2017,06,25,12,05,26.30
2017,06,25,12,06,26.30
2017,06,25,12,07,26.30
2017,06,25,12,08,26.30
2017,06,25,12,09,26.40
2017,06,25,12,10,26.50
2017,06,25,12,11,26.60
2017,06,25,12,12,26.60
2017,06,25,12,13,26.70
2017,06,25,12,14,26.80
2017,06,25,12,15,26.80
2017,06,25,12,16,26.80
2017,06,25,12,17,26.80
2017,06,25,12,18,26.80
2017,06,25,12,19,26.80
2017,06,25,12,20,26.80
2017,06,25,12,21,26.80
2017,06,25,12,22,26.80
2017,06,25,12,23,26.80
2017,06,25,12,24,26.80
2017,06,25,12,25,26.90
2017,06,25,12,26,26.90
2017,06,25,12,27,27.00
2017,06,25,12,28,27.10
2017,06,25,12,29,27.20
2017,06,25,12,30,27.30
2017,06,25,12,31,27.30
2017,06,25,12,32,27.30
2017,06,25,12,33,27.40
2017,06,25,12,34,27.50
2017,06,25,12,35,27.50
2017,06,25,12,36,27.60
2017,06,25,12,37,27.60
2017,06,25,12,38,27.60
2017,06,25,12,39,27.70
2017,06,25,12,40,27.80
2017,06,25,12,41,27.70
2017,06,25,12,42,27.70
2017,06,25,12,43,27.60
2017,06,25,12,44,27.60
2017,06,25,12,45,27.60
2017,06,25,12,46,27.60
2017,06,25,12,47,27.60
2017,06,25,12,48,27.50
2017,06,25,12,49,27.50
2017,06,25,12,50,27.40
2017,06,25,12,51,27.40
2017,06,25,12,52,27.40
2017,06,25,12,53,27.30
2017,06,25,12,54,27.30
2017,06,25,12,55,27.30
2017,06,25,12,56,27.30
2017,06,25,12,57,27.30
2017,06,25,12,58,27.30
2017,06,25,12,59,27.30
2017,06,25,13,00,27.30
2017,06,25,13,01,27.30
2017,06,25,13,02,27.20
2017,06,25,13,03,27.20
2017,06,25,13,04,27.10
2017,06,25,13,05,27.10
2017,06,25,13,06,27.10
2017,06,25,13,07,27.10
2017,06,25,13,08,27.10
2017,06,25,13,09,27.20
2017,06,25,13,10,27.30
2017,06,25,13,11,27.30
2017,06,25,13,12,27.40
2017,06,25,13,13,27.40
2017,06,25,13,14,27.40
2017,06,25,13,15,27.50
2017,06,25,13,16,27.60
2017,06,25,13,17,27.60
2017,06,25,13,18,27.70
2017,06,25,13,19,27.60
2017,06,25,13,20,27.60
2017,06,25,13,21,27.60
2017,06,25,13,22,27.70
2017,06,25,13,23,27.70
2017,06,25,13,24,27.80
2017,06,25,13,25,27.90
2017,06,25,13,26,28.00
2017,06,25,13,27,28.00
2017,06,25,13,28,28.10
2017,06,25,13,29,28.20
2017,06,25,13,30,28.20
2017,06,25,13,31,28.30
2017,06,25,13,32,28.30
2017,06,25,13,33,28.30
2017,06,25,13,34,28.30
2017,06,25,13,35,28.30
2017,06,25,13,36,28.40
2017,06,25,13,37,28.40
2017,06,25,13,38,28.50
2017,06,25,13,39,28.60
2017,06,25,13,40,28.70
2017,06,25,13,41,28.70
2017,06,25,13,42,28.70
2017,06,25,13,43,28.70
2017,06,25,13,44,28.70
2017,06,25,13,45,28.80
2017,06,25,13,46,28.80
2017,06,25,13,47,28.90
2017,06,25,13,48,28.90
2017,06,25,13,49,29.00
2017,06,25,13,50,29.10
2017,06,25,13,51,29.10
2017,06,25,13,52,29.20
2017,06,25,13,53,29.20
2017,06,25,13,54,29.30
2017,06,25,13,55,29.30
2017,06,25,13,56,29.30
2017,06,25,13,57,29.30
2017,06,25,13,58,29.30
2017,06,25,13,59,29.40
2017,06,25,14,00,29.40
2017,06,25,14,01,29.30
2017,06,25,14,02,29.30
2017,06,25,14,03,29.30
2017,06,25,14,04,29.40
2017,06,25,14,05,29.40
2017,06,25,14,06,29.50
2017,06,25,14,07,29.50
2017,06,25,14,08,29.60
2017,06,25,14,09,29.70
2017,06,25,14,10,29.80
2017,06,25,14,11,29.90
2017,06,25,14,12,30.00
2017,06,25,14,13,30.10
2017,06,25,14,14,30.10
2017,06,25,14,15,30.20
2017,06,25,14,16,30.20
2017,06,25,14,17,30.20
2017,06,25,14,18,30.20
2017,06,25,14,19,30.20
2017,06,25,14,20,30.20
2017,06,25,14,21,30.20
2017,06,25,14,22,30.20
2017,06,25,14,23,30.20
2017,06,25,14,24,30.10
2017,06,25,14,25,30.20
2017,06,25,14,26,30.20
2017,06,25,14,27,30.20
2017,06,25,14,28,30.20
2017,06,25,14,29,30.20
2017,06,25,14,30,30.20
2017,06,25,14,31,30.20
2017,06,25,14,32,30.20
2017,06,25,14,33,30.20
2017,06,25,14,34,30.30
2017,06,25,14,35,30.30
2017,06,25,14,36,30.30
2017,06,25,14,37,30.30
2017,06,25,14,38,30.30
2017,06,25,14,39,30.30
2017,06,25,14,40,30.20
2017,06,25,14,41,30.20
2017,06,25,14,42,30.20
2017,06,25,14,43,30.30
2017,06,25,14,44,30.20
2017,06,25,14,45,30.20
2017,06,25,14,46,30.20
2017,06,25,14,47,30.20
2017,06,25,14,48,30.30
2017,06,25,14,49,30.30
2017,06,25,14,50,30.30
2017,06,25,14,51,30.30
2017,06,25,14,52,30.30
2017,06,25,14,53,30.30
2017,06,25,14,54,30.20
2017,06,25,14,55,30.10
2017,06,25,14,56,30.00
2017,06,25,14,57,29.90
2017,06,25,14,58,29.90
2017,06,25,14,59,29.80
2017,06,25,15,00,29.70
2017,06,25,15,01,29.60
2017,06,25,15,02,29.60
2017,06,25,15,03,29.50
2017,06,25,15,04,29.50
2017,06,25,15,05,29.40
2017,06,25,15,06,29.30
2017,06,25,15,07,29.30
2017,06,25,15,08,29.30
2017,06,25,15,09,29.20
2017,06,25,15,10,29.10
2017,06,25,15,11,29.10
2017,06,25,15,12,29.10
2017,06,25,15,13,29.10
2017,06,25,15,14,29.10
2017,06,25,15,15,29.10
2017,06,25,15,16,29.10
2017,06,25,15,17,29.10
2017,06,25,15,18,29.10
2017,06,25,15,19,29.10
2017,06,25,15,20,29.20
2017,06,25,15,21,29.20
2017,06,25,15,22,29.20
2017,06,25,15,23,29.30
2017,06,25,15,24,29.40
2017,06,25,15,25,29.40
2017,06,25,15,26,29.40
2017,06,25,15,27,29.40
2017,06,25,15,28,29.40
2017,06,25,15,29,29.30
2017,06,25,15,30,29.20
2017,06,25,15,31,29.00
2017,06,25,15,32,28.70
2017,06,25,15,33,28.50
2017,06,25,15,34,28.20
2017,06,25,15,35,28.00
2017,06,25,15,36,27.90
2017,06,25,15,37,27.80
2017,06,25,15,38,27.70
2017,06,25,15,39,27.50
2017,06,25,15,40,27.50
2017,06,25,15,41,27.30
2017,06,25,15,42,27.20
2017,06,25,15,43,27.10
2017,06,25,15,44,27.10
2017,06,25,15,45,27.20
2017,06,25,15,46,27.30
2017,06,25,15,47,27.40
2017,06,25,15,48,27.40
2017,06,25,15,49,27.50
2017,06,25,15,50,27.40
2017,06,25,15,51,27.40
2017,06,25,15,52,27.50
2017,06,25,15,53,27.50
2017,06,25,15,54,27.50
2017,06,25,15,55,27.50
2017,06,25,15,56,27.50
2017,06,25,15,57,27.60
2017,06,25,15,58,27.60
2017,06,25,15,59,27.70
2017,06,25,16,00,27.70
2017,06,25,16,01,27.80
2017,06,25,16,02,27.80
2017,06,25,16,03,27.90
2017,06,25,16,04,27.90
2017,06,25,16,05,27.90
2017,06,25,16,06,28.00
2017,06,25,16,07,28.10
2017,06,25,16,08,28.20
2017,06,25,16,09,28.30
2017,06,25,16,10,28.40
2017,06,25,16,11,28.40
2017,06,25,16,12,28.50
2017,06,25,16,13,28.60
2017,06,25,16,14,28.70
2017,06,25,16,15,28.70
2017,06,25,16,16,28.80
2017,06,25,16,17,28.70
2017,06,25,16,18,28.60
2017,06,25,16,19,28.50
2017,06,25,16,20,28.40
2017,06,25,16,21,28.40
2017,06,25,16,22,28.40
2017,06,25,16,23,28.40
2017,06,25,16,24,28.40
2017,06,25,16,25,28.40
2017,06,25,16,26,28.50
2017,06,25,16,27,28.50
2017,06,25,16,28,28.60
2017,06,25,16,29,28.60
2017,06,25,16,30,28.60
2017,06,25,16,31,28.60
2017,06,25,16,32,28.60
2017,06,25,16,33,28.60
2017,06,25,16,34,28.60
2017,06,25,16,35,28.70
2017,06,25,16,36,28.80
2017,06,25,16,37,28.80
2017,06,25,16,38,28.80
2017,06,25,16,39,28.80
2017,06,25,16,40,28.80
2017,06,25,16,41,28.80
2017,06,25,16,42,28.80
2017,06,25,16,43,28.80
2017,06,25,16,44,28.90
2017,06,25,16,45,28.90
2017,06,25,16,46,29.00
2017,06,25,16,47,29.10
2017,06,25,16,48,29.10
2017,06,25,16,49,29.20
2017,06,25,16,50,29.20
2017,06,25,16,51,29.30
2017,06,25,16,52,29.30
2017,06,25,16,53,29.40
2017,06,25,16,54,29.40
2017,06,25,16,55,29.40
2017,06,25,16,56,29.50
2017,06,25,16,57,29.50
2017,06,25,16,58,29.60
2017,06,25,16,59,29.60
2017,06,25,17,00,29.60
2017,06,25,17,01,29.60
2017,06,25,17,02,29.60
2017,06,25,17,03,29.50
2017,06,25,17,04,29.60
2017,06,25,17,05,29.60
2017,06,25,17,06,29.70
2017,06,25,17,07,29.70
2017,06,25,17,08,29.70
2017,06,25,17,09,29.70
2017,06,25,17,10,29.70
2017,06,25,17,11,29.70
2017,06,25,17,12,29.70
2017,06,25,17,13,29.70
2017,06,25,17,14,29.60
2017,06,25,17,15,29.60
2017,06,25,17,16,29.50
2017,06,25,17,17,29.50
2017,06,25,17,18,29.30
2017,06,25,17,19,29.20